Weather History for PAHL - January, 2014

Change the Weather History Date:

Monday, January 13, 2014

  Actual Average Record
Temperature  
Mean Temperature -28 °F -  
Max Temperature -14 °F - - ()
Min Temperature -43 °F - - ()
Degree Days  
Heating Degree Days 94    
Moisture  
Dew Point -24 °F    
Average Humidity 69    
Maximum Humidity 77    
Minimum Humidity 63    
Precipitation  
Precipitation 0.00 in - - ()
Sea Level Pressure  
Sea Level Pressure 29.49 in    
Wind  
Wind Speed 1 mph (NW)    
Max Wind Speed 5 mph    
Max Gust Speed -    
Visibility 6 miles    
Events      
Averages and records for this station are not official NWS values.
T = Trace of Precipitation, MM = Missing Value Source: NWS Daily Summary

Daily Weather History Graph

Daily Weather History Graph

Search for Another Location

Airport or City:

Trip Planner

Search our weather history database for the weather conditions in past years. The results will help you decide how hot, cold, wet, or windy it might be!

Date:

Astronomy

Jan. 13, 2014 Rise Set
Actual Time 11:18 AM AKST 3:50 PM AKST
Civil Twilight 10:00 AM AKST 5:08 PM AKST
Nautical Twilight 8:50 AM AKST 6:19 PM AKST
Astronomical Twilight 7:48 AM AKST 7:20 PM AKST
Moon 2:27 PM AKST (1/13) 9:03 AM AKST (1/13)
Length of Visible Light 7h 08m
Length of Day
4h 32m
Waxing Gibbous, 95% of the Moon is Illuminated
Jan 13
Waxing Gibbous
Jan 15
Full
Jan 23
Last Quarter
Jan 30
New
Feb 6
First Quarter

Hourly Weather History & Observations

Time (AKST) Temp. Windchill Dew Point Humidity Pressure Visibility Wind Dir Wind Speed Gust Speed Precip Events Conditions
12:16 AM -41.8 °F - - N/A% 29.47 in 3.0 mi Calm Calm - N/A   Clear
12:36 AM -41.8 °F - - N/A% 29.48 in 2.5 mi Calm Calm - N/A   Clear
12:56 AM -41.8 °F - - N/A% 29.48 in 7.0 mi Calm Calm - N/A   Clear
1:16 AM -41.8 °F - - N/A% 29.48 in 10.0 mi Calm Calm - N/A   Clear
1:36 AM -41.8 °F - - N/A% 29.49 in 10.0 mi Calm Calm - N/A   Clear
1:56 AM -40.0 °F - - N/A% 29.49 in 10.0 mi Calm Calm - N/A   Clear
2:16 AM -41.8 °F - - N/A% 29.49 in 3.0 mi Calm Calm - N/A   Clear
2:36 AM -41.8 °F - - N/A% 29.50 in 4.0 mi Calm Calm - N/A   Clear
2:56 AM -41.8 °F - - N/A% 29.50 in 10.0 mi Calm Calm - N/A   Clear
3:16 AM -41.8 °F -55.6 °F - N/A% 29.50 in 10.0 mi NNW 3.5 mph - N/A   Clear
3:36 AM -41.8 °F - - N/A% 29.51 in 9.0 mi Calm Calm - N/A   Clear
3:56 AM -41.8 °F - - N/A% 29.51 in 5.0 mi Calm Calm - N/A   Clear
4:16 AM -40.0 °F - - N/A% 29.51 in 10.0 mi Calm Calm - N/A   Clear
4:36 AM -41.8 °F - - N/A% 29.51 in 1.2 mi Calm Calm - N/A   Clear
4:56 AM -43.6 °F - - N/A% 29.51 in 3.0 mi Calm Calm - N/A   Clear
5:16 AM -43.6 °F - - N/A% 29.52 in 1.5 mi Calm Calm - N/A   Clear
5:36 AM -41.8 °F - - N/A% 29.52 in 2.0 mi Calm Calm - N/A   Clear
5:56 AM -41.8 °F -55.6 °F - N/A% 29.52 in 10.0 mi NW 3.5 mph - N/A   Clear
6:16 AM -41.8 °F - - N/A% 29.52 in 2.0 mi Calm Calm - N/A   Clear
6:36 AM -41.8 °F - - N/A% 29.52 in 3.0 mi Calm Calm - N/A   Clear
6:56 AM -41.8 °F - - N/A% 29.52 in 2.5 mi Calm Calm - N/A   Clear
7:16 AM -43.6 °F - - N/A% 29.51 in 2.0 mi Calm Calm - N/A   Clear
7:36 AM -43.6 °F -57.7 °F - N/A% 29.51 in 2.0 mi NW 3.5 mph - N/A   Clear
7:56 AM -43.6 °F -57.7 °F - N/A% 29.52 in 4.0 mi NNW 3.5 mph - N/A   Clear
8:16 AM -41.8 °F - - N/A% 29.53 in 9.0 mi Calm Calm - N/A   Clear
8:36 AM -41.8 °F - - N/A% 29.53 in 4.0 mi Calm Calm - N/A   Clear
8:56 AM -41.8 °F - - N/A% 29.53 in 5.0 mi Calm Calm - N/A   Clear
9:16 AM -40.0 °F - - N/A% 29.53 in 2.5 mi Calm Calm - N/A   Clear
9:36 AM -43.6 °F - - N/A% 29.53 in 0.8 mi Calm Calm - N/A   Unknown
9:56 AM -43.6 °F -60.8 °F - N/A% 29.53 in 1.5 mi NNW 4.6 mph - N/A   Clear
10:16 AM -43.6 °F -57.7 °F - N/A% 29.53 in 1.5 mi NNW 3.5 mph - N/A   Clear
10:36 AM -43.6 °F - - N/A% 29.54 in 1.2 mi Calm Calm - N/A   Scattered Clouds
10:56 AM -41.8 °F -55.6 °F - N/A% 29.54 in 5.0 mi NW 3.5 mph - N/A   Mostly Cloudy
11:16 AM -40.0 °F - - N/A% 29.55 in 1.2 mi Calm Calm - N/A   Overcast
11:36 AM -40.0 °F -56.6 °F - N/A% 29.54 in 1.0 mi NW 4.6 mph - N/A   Overcast
11:56 AM -38.2 °F - - N/A% 29.54 in 0.8 mi Calm Calm - N/A   Overcast
12:16 PM -38.2 °F -51.5 °F - N/A% 29.54 in 2.5 mi NW 3.5 mph - N/A   Mostly Cloudy
12:36 PM -38.2 °F - - N/A% 29.54 in 2.5 mi Calm Calm - N/A   Mostly Cloudy
12:56 PM -36.4 °F - - N/A% 29.54 in 10.0 mi Calm Calm - N/A   Mostly Cloudy
1:16 PM -36.4 °F - - N/A% 29.55 in 10.0 mi Calm Calm - N/A   Overcast
1:36 PM -34.6 °F - - N/A% 29.55 in 5.0 mi Calm Calm - N/A   Overcast
1:56 PM -34.6 °F - - N/A% 29.54 in 10.0 mi Calm Calm - N/A   Overcast
2:16 PM -32.8 °F - - N/A% 29.53 in 10.0 mi Calm Calm - N/A   Overcast
2:36 PM -32.8 °F - - N/A% 29.52 in 10.0 mi Calm Calm - N/A   Overcast
2:56 PM -29.2 °F - - N/A% 29.52 in 10.0 mi Calm Calm - N/A   Overcast
3:16 PM -29.2 °F - - N/A% 29.51 in 10.0 mi Calm Calm - N/A   Overcast
3:36 PM -29.2 °F - - N/A% 29.50 in 9.0 mi Calm Calm - N/A   Overcast
3:56 PM -27.4 °F - - N/A% 29.50 in 6.0 mi Calm Calm - N/A   Overcast
4:16 PM -27.4 °F -39.2 °F - N/A% 29.49 in 5.0 mi NNW 3.5 mph - N/A   Overcast
4:36 PM -27.4 °F - - N/A% 29.48 in 2.5 mi Calm Calm - N/A   Overcast
4:56 PM -27.4 °F - - N/A% 29.48 in 0.8 mi Calm Calm - N/A   Overcast
5:16 PM -25.6 °F - - N/A% 29.48 in 4.0 mi Calm Calm - N/A   Overcast
5:36 PM -25.6 °F - - N/A% 29.47 in 7.0 mi Calm Calm - N/A   Overcast
5:56 PM -25.6 °F -37.1 °F - N/A% 29.47 in 5.0 mi NW 3.5 mph - N/A   Overcast
6:16 PM -23.8 °F -37.7 °F - N/A% 29.46 in 10.0 mi NW 4.6 mph - N/A   Overcast
6:36 PM -23.8 °F - - N/A% 29.45 in 4.0 mi Calm Calm - N/A   Overcast
6:56 PM -23.8 °F -35.0 °F - N/A% 29.45 in 10.0 mi NW 3.5 mph - N/A   Overcast
7:16 PM -23.8 °F - - N/A% 29.44 in 10.0 mi Calm Calm - N/A   Overcast
7:36 PM -22.0 °F - - N/A% 29.44 in 10.0 mi Calm Calm - N/A   Overcast
7:56 PM -20.2 °F - -29.2 °F 63% 29.44 in 3.0 mi Calm Calm - N/A   Overcast
8:16 PM -18.4 °F - -27.4 °F 63% 29.44 in 10.0 mi Calm Calm - N/A   Overcast
8:36 PM -18.4 °F - -27.4 °F 63% 29.42 in 10.0 mi Calm Calm - N/A   Overcast
8:56 PM -18.4 °F - -27.4 °F 63% 29.42 in 10.0 mi Calm Calm - N/A   Overcast
9:16 PM -18.4 °F -28.9 °F -25.6 °F 70% 29.41 in 10.0 mi North 3.5 mph - N/A   Overcast
9:36 PM -16.6 °F - -25.6 °F 64% 29.40 in 10.0 mi Calm Calm - N/A   Overcast
9:56 PM -16.6 °F - -23.8 °F 70% 29.39 in 9.0 mi Calm Calm - N/A   Overcast
10:16 PM -16.6 °F - -22.0 °F 76% 29.38 in 8.0 mi Calm Calm - N/A   Overcast
10:36 PM -16.6 °F - -23.8 °F 70% 29.37 in 8.0 mi Calm Calm - N/A   Overcast
10:56 PM -14.8 °F -24.8 °F -22.0 °F 70% 29.36 in 10.0 mi NNW 3.5 mph - N/A   Overcast
11:16 PM -14.8 °F - -20.2 °F 77% 29.35 in 10.0 mi Calm Calm - N/A   Overcast
11:36 PM -14.8 °F - -20.2 °F 77% 29.35 in 10.0 mi Calm Calm - N/A   Overcast
11:56 PM -14.8 °F - -20.2 °F 77% 29.33 in 10.0 mi Calm Calm - N/A   Overcast